[[{"header":{"parameterUnit":"m.s-1","parameterCategory":1,"la1":30.2991,"la2":30.254,"lo1":-89.0895,"lo2":-89.0444,"dy":0.0017,"dx":0.0017,"nx":28,"ny":28,"refTime":"2024-03-24T09:00:00:Z","depth":0,"parameterNumber":2,"parameterNumberName":"U-component_of_WINDS"},"data":[0,0,0,0,0,0,0,0,0,0,0,0,0,0,0,0,0,0,0,0,0,0,0,0,0,0,0,0,0,0,0,0,0,0,0,0,0,0,0,0,0,0,0,0,0,0,0,0,0,0,0,0,0,0,0,0,0,0,-2.856,-2.8561,0,-2.8601,-2.8601,-2.8602,-2.8509,-2.8506,-2.8503,-2.8501,-2.8543,-2.8547,-2.855,0,0,0,0,0,0,0,0,0,0,0,0,0,-2.8402,-2.8406,-2.856,-2.8561,-2.8561,-2.8601,-2.8601,-2.8602,-2.851,-2.8506,-2.8503,-2.8499,-2.8542,-2.8546,-2.8551,0,0,0,0,0,0,0,0,0,0,0,0,0,-2.846,-2.8407,-2.856,-2.852,-2.8517,-2.8601,-2.8601,-2.8602,-2.8511,-2.8506,-2.8502,-2.8497,-2.854,-2.8546,-2.8551,-2.8676,0,0,-2.8569,-2.8572,0,0,0,0,0,0,0,0,-2.8457,-2.8466,-2.8525,-2.8523,-2.8519,-2.8545,-2.8561,-2.8627,-2.8512,-2.8513,-2.85,-2.8495,-2.8547,-2.8552,-2.857,-2.8678,-2.868,-2.857,-2.8573,-2.8576,-2.8577,0,0,0,0,0,0,0,-2.8453,-2.8463,-2.8576,-2.8526,-2.8523,-2.85,-2.8503,-2.8573,-2.8555,-2.8513,-2.8506,-2.8512,-2.8545,-2.8564,-2.857,-2.8681,-2.857,-2.8575,-2.8578,-2.8581,-2.8893,-2.8897,0,0,0,0,0,0,-2.8454,-2.8461,-2.8575,-2.8577,-2.8476,-2.8506,-2.851,-2.8542,-2.8554,-2.8551,-2.8516,-2.8507,-2.8556,-2.8563,-2.8571,-2.8718,-2.8576,-2.8581,-2.8585,-2.8888,-2.8894,-2.8899,0,0,0,0,0,0,-2.8451,-2.8465,-2.8573,-2.8517,-2.8529,-2.8514,-2.855,-2.8545,-2.8564,-2.8556,-2.8552,-2.8539,-2.8553,-2.8563,-2.8651,-2.8718,-2.8584,-2.8589,-2.8882,-2.889,-2.8896,-2.9013,0,0,0,0,0,0,-2.8447,-2.8464,-2.8512,-2.8519,-2.8533,-2.8653,-2.8554,-2.8549,-2.8574,-2.8564,-2.8577,-2.8575,-2.855,-2.8642,-2.8656,-2.8724,-2.8594,-2.8876,-2.8886,-2.8894,-2.9004,-2.9024,-2.9041,0,0,0,0,0,-2.8441,-2.8544,-2.8515,-2.8529,-2.8592,-2.8657,-2.8665,-2.8635,-2.858,-2.8628,-2.8622,-2.8574,-2.8708,-2.8652,-2.8667,-2.8738,-2.8872,-2.8883,-2.8893,-2.8995,-2.902,-2.9041,0,0,0,0,0,0,-2.8546,-2.8544,-2.8512,-2.862,-2.8639,-2.8641,-2.8701,-2.8662,-2.8697,-2.8686,-2.8647,-2.8651,-2.8746,-2.875,-2.8688,-2.8858,-2.8781,-2.8795,-2.8853,-2.8876,-2.8895,-2.8893,-2.8598,0,0,0,0,0,-2.8581,-2.8634,-2.863,-2.8725,-2.8736,-2.8717,-2.8744,-2.8719,-2.8738,-2.8746,-2.8746,-2.8766,-2.8813,-2.8844,-2.8886,-2.9003,-2.9004,-2.9058,-2.9077,-2.9092,-2.9106,-2.9167,-2.9191,-2.8934,-2.8934,-2.8934,0,0,-2.8656,-2.8661,-2.8697,-2.8746,-2.8758,-2.8814,-2.8725,-2.8788,-2.8829,-2.8755,-2.8838,-2.8839,-2.8859,-2.8961,-2.9007,-2.8968,-2.9177,-2.9106,-2.9119,-2.9124,-2.9181,-2.9205,-2.9227,-2.8942,-2.894,-2.8939,0,0,-2.882,-2.8829,-2.891,-2.8923,-2.8942,-2.8928,-2.8947,-2.8955,-2.8953,-2.9035,-2.8981,-2.9029,-2.9109,-2.9125,-2.9144,-2.9312,-2.9269,-2.9327,-2.9426,-2.9486,-2.9506,-2.9524,-2.9585,-2.9607,-2.934,-2.934,-2.934,0,-2.891,-2.8992,-2.8956,-2.9023,-2.9046,-2.898,-2.9062,-2.9076,-2.9109,-2.9126,-2.9081,-2.9181,-2.9189,-2.9294,-2.9335,-2.9352,-2.9373,-2.9326,-2.9506,-2.9524,-2.954,-2.9597,-2.962,-2.9347,-2.9346,-2.9345,-2.9345,0,-2.9102,-2.916,-2.9222,-2.9255,-2.9284,-2.9358,-2.9333,-2.9367,-2.9339,-2.9329,-2.9413,-2.9421,-2.9463,-2.9486,-2.9459,-2.9587,-2.9562,-2.9513,-2.9434,-2.9572,-2.9625,-2.9647,-2.9357,-2.9354,-2.9352,-2.935,0,0,-2.9337,-2.9346,-2.937,-2.9383,-2.9398,-2.9442,-2.9512,-2.9553,-2.9583,-2.9607,-2.9665,-2.9733,-2.9687,-2.9708,-2.9682,-2.9735,-2.9868,-2.9678,-2.9678,-2.9714,-3.001,-3.0049,-3.0075,-2.9838,-2.9842,-2.9846,-3.0008,0,-2.95,-2.962,-2.9589,-2.9709,-2.9761,-2.9699,-2.976,-2.9775,-2.9768,-2.9811,-2.9802,-2.9852,-2.9786,-2.9799,-2.9848,-2.9841,-2.9927,-2.9829,-2.9893,-2.9895,-2.9892,-3.0102,-3.0144,-3.0297,-3.0029,-3.0032,-3.0035,0,-2.9707,-2.9738,-2.9864,-2.9869,-2.989,-2.9945,-2.9979,-3.0021,-3.0037,-3.0028,-3.0051,-3.0013,-3.0082,-3.0001,-3.0095,-3.0029,-3.0052,-3.0053,-3.0058,-3.0064,-2.9975,-3.0116,-3.0345,-3.0369,-3.0067,-3.0065,-3.0062,0,-2.9867,-2.994,-3.0024,-3.0037,-3.0045,-3.0086,-3.0091,-3.0102,-3.0128,-3.0158,-3.0174,-3.0212,-3.0233,-3.0262,-3.0236,-3.0179,-3.0334,-3.0251,-3.0328,-3.0329,-3.0366,-3.0364,-3.0604,-3.0378,-3.0378,-3.0377,-3.0377,0,-3.0054,-3.0133,-3.0096,-3.0148,-3.0235,-3.0197,-3.0283,-3.0281,-3.0291,-3.0342,-3.0289,-3.0337,-3.0298,-3.0343,-3.0322,-3.0403,-3.0413,-3.0407,-3.0401,-3.0413,-3.0414,-3.043,-3.0419,-3.0383,-3.0382,-3.0381,-3.038,0,-3.0248,-3.0226,-3.0314,-3.0314,-3.0315,-3.0379,-3.0379,-3.0427,-3.0414,-3.0478,-3.0491,-3.0472,-3.0521,-3.0497,-3.0549,-3.0535,-3.0639,-3.0618,-3.0635,-3.063,-3.0709,-3.0703,-3.0969,-3.1002,-3.0754,-3.0756,-3.0758,0,-3.037,-3.043,-3.0435,-3.0465,-3.0474,-3.0522,-3.0548,-3.0512,-3.0542,-3.0563,-3.0608,-3.0653,-3.0687,-3.0769,-3.076,-3.0799,-3.0779,-3.0869,-3.0785,-3.0795,-3.0782,-3.0779,-3.0785,-3.0888,-3.089,-3.0893,-3.0895,0,-3.0589,-3.0574,-3.0614,-3.065,-3.0682,-3.0709,-3.0731,-3.0758,-3.0722,-3.0758,-3.0808,-3.0834,-3.0886,-3.0932,-3.0965,-3.0969,-3.0927,-3.0921,-3.0941,-3.0955,-3.0963,-3.0961,-3.0683,-3.0916,-3.0914,-3.0912,-3.0911,-3.091,-3.0752,-3.0801,-3.0813,-3.0859,-3.0871,-3.0892,-3.0937,-3.0929,-3.097,-3.101,-3.0985,-3.1044,-3.1056,-3.1097,-3.1107,-3.1152,-3.1116,-3.1145,-3.1153,-3.1161,-3.1172,-3.0954,-3.1158,-3.1157,-3.1156,-3.1156,-3.1155,0,-3.0969,-3.0972,-3.1015,-3.1047,-3.1082,-3.1037,-3.1058,-3.1091,-3.1144,-3.1158,-3.1193,-3.125,-3.1293,-3.1285,-3.1324,-3.1362,-3.1343,-3.1373,-3.1371,-3.1373,-3.1202,-3.1181,-3.1388,-3.1388,-3.1388,-3.1388,-3.1388,-3.1388,-3.1086,-3.1168,-3.1155,-3.1242,-3.1244,-3.1301,-3.1317,-3.1336,-3.1348,-3.1414,-3.1449,-3.1444,-3.145,-3.1488,-3.1526,-3.1522,-3.154,-3.1578,-3.1567,-3.1408,-3.1385,-3.1363,-3.1344,-3.1581,-3.1582,-3.1735,-3.1736,-3.1738]},{"header":{"parameterUnit":"m.s-1","parameterCategory":1,"la1":30.2991,"la2":30.254,"lo1":-89.0895,"lo2":-89.0444,"dy":0.0017,"dx":0.0017,"nx":28,"ny":28,"refTime":"2024-03-24T09:00:00:Z","depth":0,"parameterNumber":3,"parameterNumberName":"V-component_of_WINDS"},"data":[0,0,0,0,0,0,0,0,0,0,0,0,0,0,0,0,0,0,0,0,0,0,0,0,0,0,0,0,0,0,0,0,0,0,0,0,0,0,0,0,0,0,0,0,0,0,0,0,0,0,0,0,0,0,0,0,0,0,-5.0998,-5.0999,0,-5.1107,-5.1108,-5.1109,-5.1052,-5.1049,-5.1046,-5.1044,-5.1151,-5.1156,-5.1162,0,0,0,0,0,0,0,0,0,0,0,0,0,-5.0735,-5.074,-5.0998,-5.0999,-5.1001,-5.1107,-5.1108,-5.111,-5.1053,-5.1049,-5.1046,-5.1042,-5.1149,-5.1155,-5.1162,0,0,0,0,0,0,0,0,0,0,0,0,0,-5.0847,-5.0742,-5.0997,-5.0985,-5.0985,-5.1106,-5.1108,-5.111,-5.1054,-5.1049,-5.1045,-5.1041,-5.1147,-5.1155,-5.1163,-5.1301,0,0,-5.1188,-5.1192,0,0,0,0,0,0,0,0,-5.084,-5.0856,-5.0986,-5.0986,-5.0986,-5.1062,-5.1055,-5.1174,-5.1055,-5.1027,-5.1044,-5.1039,-5.1124,-5.1134,-5.1164,-5.1306,-5.1311,-5.1189,-5.1194,-5.1198,-5.12,0,0,0,0,0,0,0,-5.0833,-5.0851,-5.1041,-5.0987,-5.0988,-5.0972,-5.0983,-5.1077,-5.1099,-5.1029,-5.1026,-5.1039,-5.1124,-5.1156,-5.1166,-5.1313,-5.1189,-5.1196,-5.1202,-5.1205,-5.1572,-5.1577,0,0,0,0,0,0,-5.0826,-5.0845,-5.1037,-5.1044,-5.0901,-5.098,-5.0993,-5.1042,-5.1098,-5.1102,-5.1043,-5.1036,-5.1144,-5.1156,-5.117,-5.1335,-5.1198,-5.1206,-5.121,-5.1567,-5.1573,-5.1578,0,0,0,0,0,0,-5.0821,-5.0844,-5.1033,-5.0944,-5.0967,-5.099,-5.1045,-5.1046,-5.1079,-5.1108,-5.1111,-5.1073,-5.1141,-5.1158,-5.1269,-5.1338,-5.1209,-5.1217,-5.1562,-5.1569,-5.1576,-5.1666,0,0,0,0,0,0,-5.0814,-5.0843,-5.0897,-5.0945,-5.0972,-5.1133,-5.1049,-5.1051,-5.1094,-5.1086,-5.1137,-5.1141,-5.1139,-5.1257,-5.1277,-5.1347,-5.1223,-5.1556,-5.1565,-5.1573,-5.1657,-5.1676,-5.1691,0,0,0,0,0,-5.0805,-5.0917,-5.09,-5.0923,-5.104,-5.1137,-5.1151,-5.1149,-5.11,-5.1153,-5.1172,-5.1139,-5.1327,-5.1269,-5.1291,-5.1364,-5.1551,-5.1562,-5.1573,-5.165,-5.1672,-5.1691,0,0,0,0,0,0,-5.0875,-5.0924,-5.0905,-5.1037,-5.1083,-5.1127,-5.1195,-5.1172,-5.1232,-5.1223,-5.1215,-5.1227,-5.1342,-5.1364,-5.1299,-5.15,-5.1431,-5.1447,-5.1482,-5.1503,-5.152,-5.1512,-5.123,0,0,0,0,0,-5.0906,-5.0982,-5.102,-5.1132,-5.1157,-5.1172,-5.1214,-5.1208,-5.1255,-5.1273,-5.13,-5.1345,-5.1414,-5.146,-5.1525,-5.166,-5.1669,-5.1721,-5.1738,-5.1752,-5.1765,-5.1837,-5.186,-5.1614,-5.1613,-5.1613,0,0,-5.0971,-5.1007,-5.1055,-5.1148,-5.1183,-5.126,-5.1189,-5.1274,-5.133,-5.1286,-5.1393,-5.1414,-5.1463,-5.1587,-5.1643,-5.1609,-5.1835,-5.1765,-5.1776,-5.1782,-5.185,-5.1874,-5.1894,-5.1621,-5.1619,-5.1618,0,0,-5.1128,-5.1164,-5.1261,-5.1298,-5.1352,-5.1361,-5.1385,-5.1432,-5.1445,-5.1552,-5.152,-5.1586,-5.1705,-5.1742,-5.1776,-5.1946,-5.1917,-5.1967,-5.2056,-5.2126,-5.2145,-5.2162,-5.2222,-5.2244,-5.198,-5.1981,-5.1981,0,-5.1201,-5.1318,-5.1314,-5.1401,-5.1442,-5.1407,-5.1504,-5.1539,-5.1612,-5.164,-5.1601,-5.175,-5.1781,-5.1912,-5.1953,-5.1982,-5.2007,-5.1961,-5.2143,-5.216,-5.2176,-5.2233,-5.2256,-5.1986,-5.1986,-5.1985,-5.1985,0,-5.1405,-5.1486,-5.1558,-5.163,-5.1679,-5.1771,-5.1779,-5.1828,-5.1817,-5.183,-5.1939,-5.1975,-5.2046,-5.2076,-5.2066,-5.2205,-5.2183,-5.2144,-5.2074,-5.2205,-5.2259,-5.228,-5.1994,-5.1992,-5.1991,-5.1989,0,0,-5.1611,-5.1679,-5.1706,-5.1737,-5.1794,-5.1856,-5.1945,-5.2016,-5.2058,-5.2109,-5.2182,-5.2284,-5.2248,-5.2287,-5.228,-5.2341,-5.2472,-5.2294,-5.2295,-5.2326,-5.2626,-5.2655,-5.2681,-5.2453,-5.2457,-5.2461,-5.2622,0,-5.1772,-5.1931,-5.1928,-5.2074,-5.2148,-5.2115,-5.2192,-5.2234,-5.2248,-5.2311,-5.2325,-5.2397,-5.2344,-5.2368,-5.2427,-5.2444,-5.2532,-5.2432,-5.252,-5.2523,-5.2509,-5.2709,-5.274,-5.2891,-5.2643,-5.2646,-5.2649,0,-5.1981,-5.204,-5.2194,-5.2239,-5.227,-5.234,-5.2404,-5.2465,-5.2511,-5.2517,-5.256,-5.2543,-5.2631,-5.2559,-5.268,-5.2612,-5.2648,-5.2661,-5.2667,-5.2675,-5.2594,-5.2722,-5.2939,-5.2961,-5.2682,-5.2679,-5.2677,0,-5.2116,-5.2233,-5.234,-5.2368,-5.2423,-5.2473,-5.2498,-5.254,-5.2582,-5.2638,-5.2665,-5.2729,-5.2764,-5.2813,-5.2813,-5.2761,-5.2935,-5.2863,-5.2941,-5.2941,-5.2979,-5.2977,-5.3205,-5.3003,-5.3002,-5.3002,-5.3001,0,-5.2296,-5.2391,-5.2401,-5.2467,-5.2572,-5.2567,-5.2671,-5.269,-5.2728,-5.2795,-5.2769,-5.2832,-5.2829,-5.2893,-5.2893,-5.2992,-5.3008,-5.3014,-5.3013,-5.3016,-5.3016,-5.304,-5.3029,-5.3008,-5.3007,-5.3005,-5.3004,0,-5.2464,-5.2475,-5.2589,-5.2632,-5.2644,-5.272,-5.2755,-5.2817,-5.2828,-5.2913,-5.2933,-5.295,-5.3023,-5.3028,-5.3112,-5.3112,-5.3233,-5.322,-5.3218,-5.3216,-5.3293,-5.3285,-5.3544,-5.3577,-5.3354,-5.3356,-5.3358,0,-5.2578,-5.2651,-5.2702,-5.2746,-5.2774,-5.2845,-5.2889,-5.2886,-5.2932,-5.2989,-5.3043,-5.3114,-5.3171,-5.329,-5.3308,-5.3372,-5.3361,-5.3447,-5.337,-5.3371,-5.3361,-5.3357,-5.3364,-5.3462,-5.3464,-5.3466,-5.3468,0,-5.278,-5.2781,-5.2846,-5.2912,-5.2965,-5.3016,-5.3064,-5.3101,-5.3104,-5.3156,-5.3232,-5.3276,-5.3363,-5.3433,-5.3495,-5.3518,-5.3494,-5.3492,-5.3513,-5.3517,-5.3513,-5.3516,-5.3259,-5.3486,-5.3484,-5.3483,-5.3482,-5.3481,-5.2925,-5.2987,-5.3033,-5.3105,-5.3141,-5.3186,-5.3245,-5.3264,-5.3327,-5.3399,-5.3393,-5.3476,-5.3518,-5.3599,-5.3627,-5.3691,-5.3661,-5.3692,-5.37,-5.3708,-5.3716,-5.3503,-5.3702,-5.3702,-5.3701,-5.3701,-5.37,0,-5.3124,-5.3152,-5.3218,-5.3287,-5.3343,-5.3316,-5.3367,-5.3415,-5.3489,-5.3531,-5.3588,-5.3674,-5.3742,-5.3765,-5.3831,-5.3877,-5.3867,-5.3894,-5.3891,-5.3896,-5.3739,-5.3714,-5.3901,-5.3901,-5.3901,-5.3901,-5.3901,-5.3901,-5.3235,-5.334,-5.3346,-5.3467,-5.3493,-5.3576,-5.3607,-5.3648,-5.3681,-5.3779,-5.3836,-5.3851,-5.3885,-5.3953,-5.4013,-5.4018,-5.4043,-5.4075,-5.4075,-5.3927,-5.3907,-5.3888,-5.3864,-5.408,-5.4081,-5.4227,-5.4228,-5.4229]}]]